Showing default

FLOCK 4Y 16, 55040

Orbit data source: Space-Track

FLOCK 4Y 16, 55040 is a payload satellite owned by Planet (US) in SSO that was launched on Tue, 03 Jan 2023 UTC via an FALCON 9 launch vehicle from the Air Force Eastern Test Range (AFETR). Payloads include a variety of satellites, spacecraft, and rockets equipped with specific instruments for various scientific and technological missions. These include communications satellites like Starlink; space stations such as the ISS; scientific satellites like the Hubble; Earth observation satellites from companies like Planet Labs, Umbra, and HawkEye 360; GPS; miniature CubeSats for education and research; and military/defense satellites.

Loading next visibility...
FLOCK 4Y 16 details
Identifier
55040, 2023-001AH
Orbit
SSO
Last TLE update5 hours ago
Origin
Flag of USPlanet (US)
ManufacturerPlanet
MissionOperational Commercial Imaging
Bus & MotorCUBESAT 3U, Unknown motor
Mass5.7 kg wet, 5.7 kg dry
Launch date (UTC)
2023-01-03 (2 years ago)
Launch vehicle
FALCON 9
Launch site
Air Force Eastern Test Range (AFETR)
Object type
Payload
Rocket body
Debris
Shape & HBRBox + 2 Pan, 0.3 m
Radar Cross Section0.108 m², Small (<0.1 m²)

Expand to show TLE details & history

TLE from 5 hours ago
0 FLOCK 4Y 16
1 55040U 23001AH  25036.14751363  .00057153  00000-0  10661-2 0  9993
2 55040  97.3921 106.4468 0007743  51.6351 308.5594 15.48582852116570
Epoch: 2025-02-05T03:32Z
Definitive object data (Epoch: 2025-02-05T03:32:25.177Z)
Latitude-0.00005°
Longitude-82.20072°
Altitude420.721 km
Speed7.661 km/s
True Right ascension07h 05m 47s
True Declination0° 00' 00"
Sunlit
Object was in full shadow at TLE epoch
Visualization TLE readout
Latitude39.60852°
Longitude104.15206°
Altitude426.453 km
Speed7.659 km/s
Apparent Right ascension21h 07m 03s
Apparent Declination1° 31' 42"
Sunlit
Object is in daylight
Visualization observer readout
Local Sidereal Time10:50:15
Azimuth36.04° NE
Elevation-42.312°
Doppler factor1
Orbital elements
Apogee altitude423.06 km
Perigee altitude412.536 km
Semi-major axis6,795.935 km
Eccentricity0.0007743
Inclination97.3921°
RAAN106.4468°
Arg. of periapsis51.6351°
True anomaly308.48998°
Mean anomaly308.5594°
Eccentric anomaly308.52469°
Mean motion3.87409 °/min
BSTAR0.0010661
Orbital period92.93 mins
Loading maneuver chart data...
Loading historical data...
Loading historical data...
Loading historical data...
Loading historical data...
Loading historical data...
Loading historical data...
Loading historical data...

FLOCK 4Y 16 Visibility forecast

Observer location: undefined°, undefined

Span
Click to sort rows by Start time (UTC) header in descending order
Start Az.
Max El. time (UTC)
Max El. Az.
Max El.
End time (UTC)
End Az.
5 mins2025-02-06 04:29:41.921Z155.018° SSE2025-02-06 04:31:41.921Z63.071° ENE42.552°2025-02-06 04:34:41.921Z353.699° N
|